Time,TemperatureF,DewpointF,PressureIn,WindDirection,WindDirectionDegrees,WindSpeedMPH,WindSpeedGustMPH,Humidity,HourlyPrecipIn,Conditions,Clouds,dailyrainin,SoftwareType,DateUTC
2013-03-10 00:01:00,29.0,26.0,29.86,SW,217,4.0,14.0,90,0.00,,,0.01,,2013-03-10 06:01:00,
2013-03-10 00:11:00,29.0,26.0,29.86,SW,217,4.0,14.0,90,0.00,,,0.01,,2013-03-10 06:11:00,
2013-03-10 00:22:00,29.0,26.0,29.86,SW,217,4.0,14.0,90,0.00,,,0.01,,2013-03-10 06:22:00,
2013-03-10 00:32:00,29.0,27.0,29.86,SSW,209,4.0,9.0,91,0.00,,,0.01,,2013-03-10 06:32:00,
2013-03-10 00:42:00,29.0,27.0,29.86,SSW,209,4.0,9.0,91,0.00,,,0.01,,2013-03-10 06:42:00,
2013-03-10 00:52:00,29.0,27.0,29.86,WSW,238,4.0,9.0,91,0.00,,,0.01,,2013-03-10 06:52:00,
2013-03-10 01:02:00,29.0,27.0,29.86,NNE,19,3.0,11.0,91,0.00,,,0.01,,2013-03-10 07:02:00,
2013-03-10 01:11:00,29.0,27.0,29.86,NNE,19,3.0,11.0,91,0.00,,,0.01,,2013-03-10 07:11:00,
2013-03-10 01:21:00,29.0,26.0,29.87,SSE,155,5.0,17.0,90,0.00,,,0.01,,2013-03-10 07:21:00,
2013-03-10 01:31:00,28.0,25.0,29.88,WSW,244,4.0,12.0,90,0.00,,,0.01,,2013-03-10 07:31:00,
2013-03-10 01:42:00,27.0,25.0,29.89,West,269,5.0,17.0,91,0.00,,,0.01,,2013-03-10 07:42:00,
2013-03-10 01:52:00,27.0,25.0,29.89,West,269,5.0,17.0,91,0.00,,,0.01,,2013-03-10 07:52:00,
2013-03-10 03:01:00,27.0,25.0,29.90,West,263,4.0,12.0,91,0.00,,,0.01,,2013-03-10 08:01:00,
2013-03-10 03:11:00,27.0,25.0,29.90,West,263,4.0,12.0,91,0.00,,,0.01,,2013-03-10 08:11:00,
2013-03-10 03:21:00,26.0,23.0,29.92,WSW,257,4.0,15.0,90,0.00,,,0.01,,2013-03-10 08:21:00,
2013-03-10 03:31:00,26.0,23.0,29.92,ESE,103,3.0,12.0,88,0.00,,,0.01,,2013-03-10 08:31:00,
2013-03-10 03:42:00,26.0,23.0,29.92,ESE,103,3.0,12.0,88,0.00,,,0.01,,2013-03-10 08:42:00,
2013-03-10 03:52:00,26.0,22.0,29.93,NNE,19,4.0,11.0,85,0.00,,,0.01,,2013-03-10 08:52:00,
2013-03-10 04:01:00,26.0,22.0,29.93,ESE,103,4.0,12.0,83,0.00,,,0.01,,2013-03-10 09:01:00,
2013-03-10 04:11:00,26.0,22.0,29.93,ESE,103,4.0,12.0,83,0.00,,,0.01,,2013-03-10 09:11:00,
2013-03-10 04:21:00,26.0,21.0,29.93,NW,319,3.0,11.0,82,0.00,,,0.01,,2013-03-10 09:21:00,
2013-03-10 04:31:00,26.0,21.0,29.94,WNW,290,4.0,9.0,81,0.00,,,0.01,,2013-03-10 09:31:00,
2013-03-10 04:41:00,26.0,21.0,29.94,WNW,290,4.0,9.0,81,0.00,,,0.01,,2013-03-10 09:41:00,
2013-03-10 04:52:00,25.0,20.0,29.94,South,188,4.0,13.0,81,0.00,,,0.01,,2013-03-10 09:52:00,
2013-03-10 05:01:00,25.0,20.0,29.96,WSW,256,4.0,10.0,81,0.00,,,0.01,,2013-03-10 10:01:00,
2013-03-10 05:11:00,25.0,20.0,29.96,WSW,256,4.0,10.0,81,0.00,,,0.01,,2013-03-10 10:11:00,
2013-03-10 05:21:00,25.0,20.0,29.96,WSW,244,4.0,12.0,80,0.00,,,0.01,,2013-03-10 10:21:00,
2013-03-10 05:32:00,25.0,20.0,29.97,SW,236,3.0,11.0,80,0.00,,,0.01,,2013-03-10 10:32:00,
2013-03-10 05:41:00,24.0,18.0,29.99,SW,234,4.0,12.0,78,0.00,,,0.01,,2013-03-10 10:41:00,
2013-03-10 05:52:00,24.0,18.0,29.99,SW,234,4.0,12.0,78,0.00,,,0.01,,2013-03-10 10:52:00,
2013-03-10 06:01:00,24.0,18.0,29.99,WSW,238,4.0,13.0,78,0.00,,,0.01,,2013-03-10 11:01:00,
2013-03-10 06:12:00,24.0,18.0,29.99,WSW,238,4.0,13.0,78,0.00,,,0.01,,2013-03-10 11:12:00,
2013-03-10 06:21:00,23.0,17.0,29.99,SW,219,4.0,12.0,79,0.00,,,0.01,,2013-03-10 11:21:00,
2013-03-10 06:31:00,23.0,17.0,30.00,NNW,329,4.0,17.0,79,0.00,,,0.01,,2013-03-10 11:31:00,
2013-03-10 06:42:00,23.0,17.0,30.00,NNW,329,4.0,17.0,79,0.00,,,0.01,,2013-03-10 11:42:00,
2013-03-10 06:52:00,22.0,17.0,30.01,SSW,206,6.0,12.0,80,0.00,,,0.01,,2013-03-10 11:52:00,
2013-03-10 07:01:00,22.0,16.0,30.01,SSE,155,6.0,13.0,79,0.00,,,0.01,,2013-03-10 12:01:00,
2013-03-10 07:11:00,22.0,16.0,30.01,SSE,155,6.0,13.0,79,0.00,,,0.01,,2013-03-10 12:11:00,
2013-03-10 07:21:00,21.0,16.0,30.01,South,188,3.0,11.0,79,0.00,,,0.01,,2013-03-10 12:21:00,
2013-03-10 07:31:00,21.0,16.0,30.01,South,188,3.0,11.0,79,0.00,,,0.01,,2013-03-10 12:31:00,
2013-03-10 07:42:00,21.0,16.0,30.01,South,188,3.0,11.0,79,0.00,,,0.01,,2013-03-10 12:42:00,
2013-03-10 07:51:00,21.0,16.0,30.01,NW,310,5.0,11.0,79,0.00,,,0.01,,2013-03-10 12:51:00,
2013-03-10 08:01:00,20.0,15.0,30.02,SSW,210,5.0,15.0,79,0.00,,,0.01,,2013-03-10 13:01:00,
2013-03-10 08:11:00,20.0,15.0,30.02,SSW,210,5.0,15.0,79,0.00,,,0.01,,2013-03-10 13:11:00,
2013-03-10 08:21:00,20.0,15.0,30.03,WSW,257,5.0,10.0,80,0.00,,,0.01,,2013-03-10 13:21:00,
2013-03-10 08:31:00,19.0,14.0,30.04,SW,219,5.0,12.0,80,0.00,,,0.01,,2013-03-10 13:31:00,
2013-03-10 08:41:00,19.0,14.0,30.04,SW,219,5.0,12.0,80,0.00,,,0.01,,2013-03-10 13:41:00,
2013-03-10 08:52:00,19.0,14.0,30.05,NNW,347,5.0,12.0,79,0.00,,,0.01,,2013-03-10 13:52:00,
2013-03-10 09:01:00,19.0,14.0,30.05,SW,224,6.0,13.0,79,0.00,,,0.01,,2013-03-10 14:01:00,
2013-03-10 09:11:00,19.0,14.0,30.05,SW,224,6.0,13.0,79,0.00,,,0.01,,2013-03-10 14:11:00,
2013-03-10 09:21:00,19.0,14.0,30.06,WSW,258,4.0,10.0,79,0.00,,,0.01,,2013-03-10 14:21:00,
2013-03-10 09:32:00,19.0,14.0,30.07,SW,218,3.0,10.0,79,0.00,,,0.01,,2013-03-10 14:32:00,
2013-03-10 09:41:00,19.0,14.0,30.07,SW,218,3.0,10.0,79,0.00,,,0.01,,2013-03-10 14:41:00,
2013-03-10 09:51:00,19.0,14.0,30.09,WSW,240,4.0,10.0,79,0.00,,,0.01,,2013-03-10 14:51:00,
2013-03-10 10:01:00,18.0,13.0,30.09,SSW,194,2.0,11.0,79,0.00,,,0.01,,2013-03-10 15:01:00,
2013-03-10 10:11:00,18.0,13.0,30.09,SSW,194,2.0,11.0,79,0.00,,,0.01,,2013-03-10 15:11:00,
2013-03-10 10:21:00,19.0,13.0,30.10,SW,230,4.0,12.0,78,0.00,,,0.01,,2013-03-10 15:21:00,
2013-03-10 10:32:00,18.0,12.0,30.11,WSW,238,4.0,11.0,78,0.00,,,0.00,,2013-03-10 15:32:00,
2013-03-10 10:42:00,18.0,12.0,30.11,WSW,238,4.0,11.0,78,0.00,,,0.00,,2013-03-10 15:42:00,
2013-03-10 10:51:00,18.0,12.0,30.12,SSW,192,5.0,12.0,77,0.00,,,0.00,,2013-03-10 15:51:00,
2013-03-10 11:01:00,20.0,14.0,30.12,West,274,3.0,10.0,77,0.00,,,0.00,,2013-03-10 16:01:00,
2013-03-10 11:12:00,20.0,14.0,30.12,West,274,3.0,10.0,77,0.00,,,0.00,,2013-03-10 16:12:00,
2013-03-10 11:21:00,20.0,13.0,30.12,WSW,238,4.0,10.0,75,0.00,,,0.00,,2013-03-10 16:21:00,
2013-03-10 11:32:00,21.0,14.0,30.12,WSW,248,5.0,11.0,74,0.00,,,0.00,,2013-03-10 16:32:00,
2013-03-10 11:41:00,21.0,14.0,30.12,WSW,248,5.0,11.0,74,0.00,,,0.00,,2013-03-10 16:41:00,
2013-03-10 11:51:00,21.0,14.0,30.12,NW,321,4.0,12.0,74,0.00,,,0.00,,2013-03-10 16:51:00,
2013-03-10 12:01:00,22.0,15.0,30.12,WSW,244,5.0,11.0,73,0.00,,,0.00,,2013-03-10 17:01:00,
2013-03-10 12:11:00,22.0,15.0,30.12,WSW,244,5.0,11.0,73,0.00,,,0.00,,2013-03-10 17:11:00,
2013-03-10 12:21:00,22.0,14.0,30.13,WSW,254,6.0,13.0,70,0.01,,,0.01,,2013-03-10 17:21:00,
2013-03-10 12:31:00,22.0,14.0,30.12,NW,312,6.0,12.0,71,0.01,,,0.01,,2013-03-10 17:31:00,
2013-03-10 12:41:00,22.0,14.0,30.12,NW,312,6.0,12.0,71,0.01,,,0.01,,2013-03-10 17:41:00,
2013-03-10 12:51:00,23.0,16.0,30.14,SSW,196,3.0,10.0,73,0.02,,,0.02,,2013-03-10 17:51:00,
2013-03-10 13:01:00,22.0,15.0,30.14,WNW,294,5.0,12.0,73,0.03,,,0.03,,2013-03-10 18:01:00,
2013-03-10 13:11:00,22.0,15.0,30.14,WNW,294,5.0,12.0,73,0.03,,,0.03,,2013-03-10 18:11:00,
2013-03-10 13:21:00,22.0,14.0,30.13,WNW,298,5.0,10.0,72,0.02,,,0.03,,2013-03-10 18:21:00,
2013-03-10 13:32:00,23.0,15.0,30.12,SW,235,6.0,16.0,71,0.02,,,0.03,,2013-03-10 18:32:00,
2013-03-10 13:42:00,23.0,15.0,30.12,SW,235,6.0,16.0,71,0.02,,,0.03,,2013-03-10 18:42:00,
2013-03-10 13:52:00,23.0,15.0,30.12,WNW,286,4.0,13.0,72,0.01,,,0.03,,2013-03-10 18:52:00,
2013-03-10 14:01:00,24.0,16.0,30.12,SW,225,4.0,11.0,71,0.00,,,0.03,,2013-03-10 19:01:00,
2013-03-10 14:11:00,24.0,16.0,30.12,SW,225,4.0,11.0,71,0.00,,,0.03,,2013-03-10 19:11:00,
2013-03-10 14:21:00,25.0,17.0,30.12,SSW,200,5.0,10.0,70,0.00,,,0.03,,2013-03-10 19:21:00,
2013-03-10 14:32:00,25.0,17.0,30.11,SW,236,6.0,13.0,70,0.01,,,0.04,,2013-03-10 19:32:00,
2013-03-10 14:42:00,25.0,17.0,30.11,SW,236,6.0,13.0,70,0.01,,,0.04,,2013-03-10 19:42:00,
2013-03-10 14:52:00,26.0,18.0,30.11,NNW,336,5.0,12.0,70,0.01,,,0.04,,2013-03-10 19:52:00,
2013-03-10 15:02:00,26.0,17.0,30.11,SSW,205,5.0,12.0,69,0.02,,,0.05,,2013-03-10 20:02:00,
2013-03-10 15:12:00,26.0,17.0,30.11,SSW,205,5.0,12.0,69,0.02,,,0.05,,2013-03-10 20:12:00,
2013-03-10 15:22:00,25.0,17.0,30.11,West,262,5.0,12.0,70,0.02,,,0.05,,2013-03-10 20:22:00,
2013-03-10 15:32:00,26.0,17.0,30.11,SW,232,4.0,10.0,69,0.01,,,0.05,,2013-03-10 20:32:00,
2013-03-10 15:42:00,26.0,17.0,30.11,SW,232,4.0,10.0,69,0.01,,,0.05,,2013-03-10 20:42:00,
2013-03-10 15:52:00,26.0,16.0,30.11,NNW,328,5.0,12.0,66,0.02,,,0.06,,2013-03-10 20:52:00,
2013-03-10 16:02:00,26.0,16.0,30.11,WNW,293,5.0,16.0,66,0.01,,,0.06,,2013-03-10 21:02:00,
2013-03-10 16:12:00,26.0,16.0,30.11,WNW,293,5.0,16.0,66,0.01,,,0.06,,2013-03-10 21:12:00,
2013-03-10 16:22:00,27.0,17.0,30.11,WNW,300,3.0,11.0,66,0.01,,,0.06,,2013-03-10 21:22:00,
2013-03-10 16:32:00,27.0,17.0,30.11,SW,233,4.0,13.0,65,0.02,,,0.07,,2013-03-10 21:32:00,
2013-03-10 16:42:00,27.0,17.0,30.11,SW,233,4.0,13.0,65,0.02,,,0.07,,2013-03-10 21:42:00,
2013-03-10 16:52:00,27.0,18.0,30.11,WNW,292,4.0,10.0,67,0.01,,,0.07,,2013-03-10 21:52:00,
2013-03-10 17:02:00,27.0,16.0,30.11,WSW,248,5.0,14.0,63,0.01,,,0.07,,2013-03-10 22:02:00,
2013-03-10 17:12:00,27.0,16.0,30.11,WSW,248,5.0,14.0,63,0.01,,,0.07,,2013-03-10 22:12:00,
2013-03-10 17:22:00,27.0,16.0,30.11,WSW,241,5.0,13.0,63,0.01,,,0.07,,2013-03-10 22:22:00,
2013-03-10 17:32:00,28.0,16.0,30.11,SSW,208,4.0,10.0,61,0.00,,,0.07,,2013-03-10 22:32:00,
2013-03-10 17:43:00,28.0,16.0,30.11,SSW,208,4.0,10.0,61,0.00,,,0.07,,2013-03-10 22:43:00,
2013-03-10 17:52:00,27.0,15.0,30.11,NE,43,4.0,12.0,61,0.00,,,0.07,,2013-03-10 22:52:00,
2013-03-10 18:03:00,28.0,16.0,30.11,WSW,246,3.0,12.0,60,0.00,,,0.07,,2013-03-10 23:03:00,
2013-03-10 18:12:00,28.0,16.0,30.11,WSW,246,3.0,12.0,60,0.00,,,0.07,,2013-03-10 23:12:00,
2013-03-10 18:23:00,28.0,16.0,30.10,West,260,4.0,12.0,60,0.00,,,0.07,,2013-03-10 23:23:00,
2013-03-10 18:32:00,28.0,16.0,30.09,West,278,4.0,10.0,60,0.00,,,0.07,,2013-03-10 23:32:00,
2013-03-10 18:42:00,28.0,16.0,30.09,West,278,4.0,10.0,60,0.00,,,0.07,,2013-03-10 23:42:00,
2013-03-10 18:52:00,28.0,16.0,30.09,SSW,209,4.0,14.0,61,0.00,,,0.07,,2013-03-10 23:52:00,
2013-03-10 19:02:00,27.0,16.0,30.09,WSW,241,5.0,11.0,62,0.00,,,0.07,,2013-03-11 00:02:00,
2013-03-10 19:12:00,27.0,16.0,30.09,WSW,241,5.0,11.0,62,0.00,,,0.07,,2013-03-11 00:12:00,
2013-03-10 19:23:00,27.0,16.0,30.09,WSW,243,4.0,12.0,64,0.00,,,0.07,,2013-03-11 00:23:00,
2013-03-10 19:33:00,26.0,16.0,30.09,WSW,255,4.0,9.0,64,0.00,,,0.07,,2013-03-11 00:33:00,
2013-03-10 19:43:00,26.0,16.0,30.09,WSW,255,4.0,9.0,64,0.00,,,0.07,,2013-03-11 00:43:00,
2013-03-10 19:52:00,25.0,15.0,30.09,WSW,254,3.0,9.0,66,0.00,,,0.07,,2013-03-11 00:52:00,
2013-03-10 20:02:00,24.0,15.0,30.09,WSW,242,1.0,8.0,67,0.00,,,0.07,,2013-03-11 01:02:00,
2013-03-10 20:13:00,24.0,15.0,30.09,WSW,242,1.0,8.0,67,0.00,,,0.07,,2013-03-11 01:13:00,
2013-03-10 20:23:00,23.0,14.0,30.09,West,267,3.0,10.0,67,0.00,,,0.07,,2013-03-11 01:23:00,
2013-03-10 20:32:00,23.0,14.0,30.09,SW,232,2.0,8.0,68,0.00,,,0.07,,2013-03-11 01:32:00,
2013-03-10 20:42:00,23.0,14.0,30.09,SW,232,2.0,8.0,68,0.00,,,0.07,,2013-03-11 01:42:00,
2013-03-10 20:52:00,22.0,14.0,30.10,SW,235,1.0,6.0,70,0.00,,,0.07,,2013-03-11 01:52:00,
2013-03-10 21:02:00,22.0,14.0,30.10,WSW,249,2.0,4.0,72,0.00,,,0.07,,2013-03-11 02:02:00,
2013-03-10 21:12:00,22.0,14.0,30.10,WSW,249,2.0,4.0,72,0.00,,,0.07,,2013-03-11 02:12:00,
2013-03-10 21:22:00,21.0,14.0,30.10,WSW,248,1.0,4.0,73,0.00,,,0.07,,2013-03-11 02:22:00,
2013-03-10 21:32:00,20.0,13.0,30.10,WNW,287,0.0,2.0,73,0.00,,,0.07,,2013-03-11 02:32:00,
2013-03-10 21:42:00,20.0,13.0,30.10,WNW,287,0.0,2.0,73,0.00,,,0.07,,2013-03-11 02:42:00,
2013-03-10 21:52:00,19.0,13.0,30.09,WSW,250,0.0,3.0,76,0.00,,,0.07,,2013-03-11 02:52:00,
2013-03-10 22:02:00,19.0,13.0,30.09,West,269,0.0,1.0,77,0.00,,,0.07,,2013-03-11 03:02:00,
2013-03-10 22:12:00,19.0,13.0,30.09,West,269,0.0,1.0,77,0.00,,,0.07,,2013-03-11 03:12:00,
2013-03-10 22:22:00,18.0,12.0,30.10,West,259,0.0,2.0,77,0.00,,,0.07,,2013-03-11 03:22:00,
2013-03-10 22:32:00,18.0,13.0,30.09,WSW,258,1.0,3.0,79,0.00,,,0.07,,2013-03-11 03:32:00,
2013-03-10 22:42:00,18.0,13.0,30.09,WSW,258,1.0,3.0,79,0.00,,,0.07,,2013-03-11 03:42:00,
2013-03-10 22:52:00,17.0,12.0,30.09,WSW,254,0.0,4.0,79,0.00,,,0.07,,2013-03-11 03:52:00,
2013-03-10 23:02:00,17.0,12.0,30.09,West,261,0.0,3.0,81,0.00,,,0.07,,2013-03-11 04:02:00,
2013-03-10 23:12:00,17.0,12.0,30.09,West,261,0.0,3.0,81,0.00,,,0.07,,2013-03-11 04:12:00,
2013-03-10 23:22:00,18.0,13.0,30.08,WSW,243,0.0,2.0,80,0.00,,,0.07,,2013-03-11 04:22:00,
2013-03-10 23:32:00,18.0,13.0,30.07,WSW,249,0.0,2.0,80,0.00,,,0.07,,2013-03-11 04:32:00,
2013-03-10 23:42:00,18.0,13.0,30.07,WSW,249,0.0,2.0,80,0.00,,,0.07,,2013-03-11 04:42:00,
2013-03-10 23:52:00,17.0,12.0,30.08,WSW,248,0.0,2.0,79,0.00,,,0.07,,2013-03-11 04:52:00,